Location: Unspecified
(0.0000°N, 0.0000°E)
Time: 11:59:34
(UTC+00:00)

Hubble Space Telescope - Pass Details

Date: 10 May 2026
Orbit: 473 x 476 km, 28.5° (Epoch: 18 May)

Event Time Altitude Azimuth Distance (km) Brightness Sun altitude
Rises 19:26:46 0° 293° (WNW) 2,499 5.7 -21.4°
Reaches altitude 10° 19:28:59 10° 289° (WNW) 1,624 4.4 -22.0°
Enters shadow 19:32:25 53° 226° (SW) 581 1.0 -22.8°
